Weather History for Jonesboro, AR

Change the Weather History Date:

Saturday, February 25, 2012

  Actual Average Record
Temperature  
Mean Temperature 44 °F 44 °F  
Max Temperature 53 °F 54 °F 82 °F (1918)
Min Temperature 35 °F 34 °F 10 °F (1965)
Degree Days  
Heating Degree Days 21 21  
Month to date heating degree days 513 598  
Since 1 July heating degree days 2399 2894  
Cooling Degree Days 0 0  
Month to date cooling degree days 0 0  
Year to date cooling degree days 0 0  
Moisture  
Dew Point 22 °F    
Average Humidity 43    
Maximum Humidity 59    
Minimum Humidity 26    
Precipitation  
Precipitation 0.00 in 0.13 in 3.00 in (1899)
Month to date precipitation 2.29 3.33  
Year to date precipitation 5.03 6.76  
Snow  
Snow 0.00 in - 8.00 in (1979)
Month to date snowfall 0.5  
Since 1 July snowfall 5.5  
Snow Depth 0.00 in    
Sea Level Pressure  
Sea Level Pressure 30.30 in    
Wind  
Wind Speed 6 mph (WNW)    
Max Wind Speed 15 mph    
Max Gust Speed 21 mph    
Visibility 10 miles    
Events      
T = Trace of Precipitation, MM = Missing Value Source: NWS Daily Summary

Daily Weather History Graph

Daily Weather History Graph

Search for Another Location

Airport:

Trip Planner

Search our weather history database for the weather conditions in past years. The results will help you decide how hot, cold, wet, or windy it might be!

Date:

Astronomy

Feb. 25, 2012 Rise Set
Actual Time 6:38 AM CST 5:53 PM CST
Civil Twilight 6:12 AM CST 6:19 PM CST
Nautical Twilight 5:42 AM CST 6:49 PM CST
Astronomical Twilight 5:13 AM CST 7:18 PM CST
Moon 8:11 AM CST (2/25) 9:44 PM CST (2/25)
Length of Visible Light 12h 06m
Length of Day
11h 15m
Waxing Crescent, 14% of the Moon is Illuminated
Feb 25
Waxing Crescent
Feb 29
First Quarter
Mar 8
Full
Mar 14
Last Quarter
Mar 22
New

Hourly Weather History & Observations

Time (CST) Temp. Windchill Dew Point Humidity Pressure Visibility Wind Dir Wind Speed Gust Speed Precip Events Conditions
12:53 AM 39.9 °F 35.8 °F 21.0 °F 47% 30.25 in 10.0 mi West 5.8 mph - N/A   Clear
1:53 AM 39.9 °F 35.1 °F 19.0 °F 43% 30.25 in 10.0 mi West 6.9 mph - N/A   Clear
2:53 AM 39.2 °F 35.9 °F 19.4 °F 45% 30.24 in 10.0 mi West 4.6 mph - N/A   Clear
3:53 AM 37.0 °F 33.3 °F 19.9 °F 50% 30.25 in 10.0 mi SW 4.6 mph - N/A   Clear
4:53 AM 39.9 °F 35.1 °F 19.9 °F 45% 30.27 in 10.0 mi West 6.9 mph - N/A   Clear
5:53 AM 39.0 °F 32.8 °F 21.0 °F 49% 30.30 in 10.0 mi WNW 9.2 mph - N/A   Clear
6:53 AM 37.0 °F 32.4 °F 19.9 °F 50% 30.32 in 10.0 mi NW 5.8 mph - N/A   Clear
7:53 AM 41.0 °F 36.4 °F 21.0 °F 45% 30.34 in 10.0 mi NW 6.9 mph - N/A   Clear
8:53 AM 45.0 °F 40.1 °F 21.0 °F 39% 30.36 in 10.0 mi NNW 9.2 mph - N/A   Clear
9:53 AM 46.9 °F - 19.9 °F 34% 30.37 in 10.0 mi NNW 10.4 mph - N/A   Clear
10:53 AM 48.9 °F - 21.9 °F 35% 30.38 in 10.0 mi NW 11.5 mph - N/A   Clear
11:53 AM 50.0 °F - 21.2 °F 32% 30.37 in 10.0 mi NW 6.9 mph - N/A   Clear
12:53 PM 51.1 °F - 21.0 °F 31% 30.35 in 10.0 mi West 13.8 mph 19.6 mph N/A   Clear
1:53 PM 51.1 °F - 21.0 °F 31% 30.32 in 10.0 mi WNW 6.9 mph 18.4 mph N/A   Clear
2:53 PM 52.0 °F - 21.0 °F 30% 30.31 in 10.0 mi SW 5.8 mph - N/A   Clear
3:53 PM 53.1 °F - 19.9 °F 27% 30.30 in 10.0 mi Calm Calm - N/A   Clear
4:53 PM 52.0 °F - 18.0 °F 26% 30.29 in 10.0 mi Calm Calm - N/A   Clear
5:53 PM 48.9 °F - 23.0 °F 36% 30.29 in 10.0 mi South 5.8 mph - N/A   Clear
6:53 PM 46.0 °F 43.1 °F 28.9 °F 51% 30.29 in 10.0 mi ESE 5.8 mph - N/A   Clear
7:53 PM 39.9 °F - 26.1 °F 58% 30.30 in 10.0 mi Calm Calm - N/A   Clear
8:53 PM 39.9 °F - 25.0 °F 55% 30.29 in 10.0 mi Calm Calm - N/A   Clear
9:53 PM 39.0 °F - 25.0 °F 57% 30.29 in 10.0 mi Calm Calm - N/A   Clear
10:53 PM 39.9 °F 35.1 °F 27.0 °F 60% 30.27 in 10.0 mi SE 6.9 mph - N/A   Clear
11:53 PM 39.0 °F 34.8 °F 25.0 °F 57% 30.26 in 10.0 mi ESE 5.8 mph - N/A   Clear